Location: Glencliff
(36.1226°N, 86.7183°W)
Time: 12:42:31
(UTC+00:00)

Cosmos 1066 Rocket - Pass Details

Date: 25 August 2019
Orbit: 798 x 895 km, 81.2° (Epoch: 15 September)

Event Time Altitude Azimuth Distance (km) Brightness Sun altitude
Rises 02:49:56 0° 353° (N) 3,327 7.9 -26.8°
Reaches altitude 10° 02:52:21 10° 355° (N) 2,385 7.1 -27.2°
Enters shadow 02:56:59 63° 27° (NNE) 887 4.2 -27.9°
